User: anonymous   Login
Location: Unspecified
(0.0000°N, 0.0000°E)
Time: 20:23:59
(UTC+00:00)
Language:

STARLINK-4362 - Orbit

View from above orbital plane
View from above orbital plane
View from above satellite
View from above satellite

Ground track
Ground track

The orbit is defined by the following mean orbital elements,

1 53043U          26145.40394777 +.00000000 +00000-0 -89692-4 0 00006
2 53043  97.4460 325.2870 0001067  97.2737 262.8612 15.05661027    03
Epoch (UTC): 25 May 2026 09:41:41
Eccentricity: 0.0001067
inclination: 97.4460°
perigee height: 549 km
apogee height: 550 km
right ascension of ascending node: 325.2870°
argument of perigee: 97.2737°
revolutions per day: 15.05661027
mean anomaly at epoch: 262.8612°

The dashed part of the orbit path shows where the satellite is in the earth's shadow,  

DLR